Location: Vojnic
(45.3264°N, 15.6972°E)
Time: 15:37:00
(UTC+02:00)

USA 238 DEB - Pass Details

Date: 30 September 2022
Orbit: 930 x 1283 km, 63.4° (Epoch: 24 September)

Event Time Altitude Azimuth Distance (km) Brightness Sun altitude
Rises 05:07:51 0° 175° (S) 3,581 6.3 -19.2°
Reaches altitude 10° 05:10:47 10° 162° (SSE) 2,664 5.8 -18.7°
Maximum altitude 05:15:38 25° 110° (ESE) 1,884 5.6 -17.9°
Drops below altitude 10° 05:20:45 10° 59° (ENE) 2,817 7.1 -17.1°
Sets 05:23:55 0° 47° (NE) 3,833 7.7 -16.5°
